Location: Newark
(52.8300°N, 8.0000°E)
Time: 12:14:11
(UTC+00:00)

STARLINK-1072 - Pass Details

Date: 30 January 2020
Orbit: 349 x 350 km, 53.0° (Epoch: 17 February)

Event Time Altitude Azimuth Distance (km) Brightness Sun altitude
Rises 17:57:35 0° 283° (WNW) 2,187 8.0 -16.4°
Reaches altitude 10° 17:59:47 10° 270° (W) 1,341 6.9 -16.7°
Maximum altitude 18:02:20 26° 212° (SSW) 763 4.8 -17.1°
Enters shadow 18:04:03 16° 164° (SSE) 1,065 5.0 -17.4°
